Flag for U.S.A. Weather past 2 weeks in Cheyenne, Wyoming, U.S.A.

Now
60 °F

Clear.


Feels Like: 60 °F
Forecast: 53 / 83 °F
Wind: 5 mph from Southwest

Location: Cheyenne Airport

Current Time: Jul 30, 2015 at 2:21:26 AM

Latest Report: Jul 30, 2015 at 1:53 AM


Visibility: 10 mi

Pressure: 30.11 "Hg (24.17 "Hg at 1855m altitude)

Humidity: 62%

Dew point: 47 °F

Location of CheyenneLocation

Historic Weather in Cheyenne — Graph

°F

Cheyenne temperature yesterday

Maximum temperature yesterday: 81 °F (at 3:53 PM)
Minimum temperature yesterday: 47 °F (at 5:53 AM)
Average temperature yesterday: 66 °F

Past Weeks' High & Low Weather Summary

 TemperatureHumidityPressure
High91 °F (Jul 27, 2:53 PM)97% (Jul 21, 6:53 PM)30.19 "Hg (Jul 21, 6:53 PM)
Low47 °F (Jul 29, 5:53 AM)13% (Jul 26, 1:53 PM)29.59 "Hg (Jul 27, 5:53 PM)
Average69 °F48%29.89 "Hg
* Reported Jul 15 12:53 AM — Jul 30 12:53 AM, Cheyenne, Weather by CustomWeather, © 2015

Note: Actual official high and low records may vary slightly from our data, if they occured in-between our weather recording intervals... More about our weather records

Advertising

Cheyenne weather history for previous 24 hours

 ConditionsComfort  
Time TempWeatherWind HumidityBarometerVisibility
12:53 AM
Thu, Jul 30
62 °FClear.6 mph56%30.11 "Hg10 mi
11:53 PM
Wed, Jul 29
64 °FClear.8 mph52%30.11 "Hg10 mi
10:53 PM66 °FPassing clouds.9 mph52%30.11 "Hg10 mi
9:53 PM65 °FPassing clouds.8 mph54%30.12 "Hg10 mi
8:53 PM69 °FSunny.9 mph49%30.10 "Hg10 mi
7:53 PM73 °FSunny.13 mph44%30.08 "Hg10 mi
6:53 PM76 °FSunny.15 mph40%30.09 "Hg10 mi
5:53 PM78 °FSunny.14 mph35%30.08 "Hg10 mi
4:53 PM77 °FPassing clouds.13 mph35%30.09 "Hg10 mi
3:53 PM81 °FScattered clouds.9 mph29%30.08 "Hg10 mi
2:53 PM79 °FSunny.7 mph32%30.08 "Hg10 mi
1:53 PM78 °FSunny.9 mph33%30.09 "Hg10 mi
12:53 PM77 °FSunny.10 mph37%30.11 "Hg10 mi
11:53 AM73 °FSunny.13 mph40%30.13 "Hg10 mi
10:53 AM70 °FSunny.5 mph41%30.13 "Hg10 mi
9:53 AM66 °FSunny.5 mph40%30.15 "Hg10 mi
8:53 AM61 °FSunny.3 mph41%30.15 "Hg10 mi
7:53 AM58 °FSunny.7 mph44%30.16 "Hg10 mi
6:53 AM50 °FSunny.5 mph59%30.19 "Hg10 mi
5:53 AM47 °FClear.5 mph61%30.16 "Hg10 mi
4:53 AM48 °FClear.8 mph56%30.15 "Hg10 mi
3:53 AM51 °FClear.6 mph46%30.13 "Hg10 mi
2:53 AM56 °FClear.No wind37%30.10 "Hg10 mi
Weather by CustomWeather, © 2015

See weather overviewHow to use our weather pages